Location: Iowa City
(41.6610°N, 91.5300°W)
Time: 06:45:16
(UTC-05:00)

ISS - Visible Passes

Search period start: 30 September 2016 00:00
Search period end: 10 October 2016 00:00
Orbit: 400 x 409 km, 51.6° (Epoch: 30 September)

Date Brightness Start Highest point End Pass type
(mag) Time Alt. Az. Time Alt. Az. Time Alt. Az.
30 Sep -3.0 19:31:51 10° SW 19:34:59 46° SE 19:37:47 12° ENE visible
30 Sep -0.8 21:08:44 10° W 21:10:28 22° WNW 21:10:28 22° WNW visible
01 Oct -2.2 20:16:11 10° W 20:19:17 41° NNW 20:20:39 26° NNE visible
02 Oct -3.1 19:23:48 10° WSW 19:27:02 72° NW 19:30:18 10° NE visible
02 Oct -0.7 21:01:35 10° WNW 21:03:23 18° NNW 21:03:23 18° NNW visible
03 Oct -1.3 20:08:50 10° WNW 20:11:34 24° NNW 20:13:21 16° NNE visible
04 Oct -1.9 19:16:11 10° W 19:19:12 34° NNW 19:22:14 10° NE visible
04 Oct -0.6 20:54:24 10° NW 20:55:53 15° NNW 20:55:53 15° NNW visible
05 Oct -0.9 20:01:38 10° WNW 20:03:54 17° NNW 20:05:42 12° NNE visible
06 Oct -1.2 19:08:50 10° WNW 19:11:26 22° NNW 19:14:03 10° NE visible
06 Oct -0.5 20:46:56 10° NNW 20:48:07 14° NNW 20:48:07 14° NNW visible
07 Oct -0.8 19:54:20 10° NW 19:56:15 15° N 19:57:51 11° NNE visible
08 Oct -1.0 19:01:33 10° NW 19:03:43 16° N 19:05:52 10° NNE visible
08 Oct -0.7 20:39:02 10° NNW 20:40:12 14° N 20:40:12 14° N visible
09 Oct -1.0 19:46:42 10° NNW 19:48:35 14° N 19:49:54 12° NNE visible
